EW8108 Weather Reports


Display with metric or nautical units.
time (UTC)temp
F
wind
direction
speed
MPH
gust
MPH
rain 1hr
in
rain 24hr
in
rain mn
in
humidity
%
barometer
mb
20200126053528 57 225 0.0 0.0 0.00 0.01 0.01 91 977.5
20200126052533 57 225 0.0 0.0 0.00 0.01 0.01 90 977.6
20200126051525 58 225 0.0 0.0 0.00 0.01 0.01 90 977.6
20200126050536 58 225 0.0 0.0 0.00 0.00 0.00 90 977.8
20200126045541 58 225 0.0 0.0 0.00 0.00 0.00 90 977.8
20200126044554 58 225 0.0 0.0 0.00 0.00 0.00 90 977.9
20200126043539 58 225 0.0 0.0 0.00 0.00 0.00 90 977.9
20200126042517 58 225 0.0 0.0 0.00 0.00 0.00 90 977.9
20200126041511 58 225 0.0 0.0 0.00 0.00 0.00 90 977.9
20200126040440 58 225 0.0 0.0 0.00 0.00 0.00 90 977.8
20200126035428 58 225 0.0 0.0 0.00 0.00 0.00 90 977.8
20200126034441 58 225 0.0 0.0 0.00 0.00 0.00 90 977.7
20200126033502 58 225 0.0 0.0 0.00 0.00 0.00 90 977.6
20200126032516 58 225 0.0 0.0 0.00 0.00 0.00 90 977.6
20200126031522 58 225 0.0 0.0 0.00 0.00 0.00 89 977.6
20200126030533 58 225 0.0 0.0 0.00 0.00 0.00 89 977.6
20200126025547 58 225 0.0 0.0 0.00 0.00 0.00 89 977.4
20200126024556 58 225 0.0 0.0 0.00 0.00 0.00 89 977.4
20200126023612 58 225 0.0 0.0 0.00 0.00 0.00 89 977.4
20200126022554 58 231 0.0 0.0 0.00 0.00 0.00 89 977.5
20200126021604 58 231 0.0 0.0 0.00 0.00 0.00 88 977.5
20200126020538 58 230 0.0 0.0 0.00 0.00 0.00 88 977.4
20200126015544 59 231 0.0 0.0 0.00 0.00 0.00 87 977.4
20200126014518 59 233 0.0 0.0 0.00 0.00 0.00 87 977.5
20200126013528 59 221 0.0 0.0 0.00 0.00 0.00 86 977.5
20200126012523 59 221 0.0 0.0 0.00 0.00 0.00 86 977.6
20200126011500 59 223 0.0 0.0 0.00 0.00 0.00 85 977.5
20200126010446 59 223 0.0 0.0 0.00 0.00 0.00 85 977.5
20200126005455 60 224 0.0 0.0 0.00 0.00 0.00 85 977.5
20200126004455 60 224 0.0 0.0 0.00 0.00 0.00 84 977.6
20200126003434 60 224 0.0 0.0 0.00 0.00 0.00 83 977.5
20200126002405 61 162 0.0 5.0 0.00 0.00 0.00 82 977.6
20200126001350 61 237 0.0 3.0 0.00 0.00 0.00 80 977.5
20200126000404 61 220 0.0 1.0 0.00 0.00 0.00 80 977.3
20200125235407 62 232 0.0 5.0 0.00 0.00 0.00 79 977.3
20200125234336 62 202 0.0 3.0 0.00 0.00 0.00 79 977.2
20200125233304 62 227 0.0 2.0 0.00 0.00 0.00 78 977.3
20200125232258 62 231 0.0 6.0 0.00 0.00 0.00 78 977.2
20200125231245 62 187 0.0 5.0 0.00 0.00 0.00 77 977.1
20200125230212 62 213 0.0 4.0 0.00 0.00 0.00 76 977.0
20200125225157 62 186 0.0 0.0 0.00 0.00 0.00 76 977.1
20200125224135 62 216 0.0 4.0 0.00 0.00 0.00 76 977.0
20200125223103 62 216 0.0 4.0 0.00 0.00 0.00 75 976.8
20200125222039 63 217 0.0 7.0 0.00 0.00 0.00 74 976.7
20200125221052 63 197 1.0 7.0 0.00 0.00 0.00 74 976.8
20200125220056 63 222 0.0 6.0 0.00 0.00 0.00 74 976.8
20200125215116 63 180 0.0 4.0 0.00 0.00 0.00 73 976.9
20200125214106 63 252 0.0 2.0 0.00 0.00 0.00 73 976.9
20200125213035 63 222 0.0 2.0 0.00 0.00 0.00 73 977.0
20200125212054 63 209 0.0 5.0 0.00 0.00 0.00 73 977.0
20200125211057 63 184 0.0 4.0 0.00 0.00 0.00 72 977.1
20200125210105 63 246 1.0 6.0 0.00 0.00 0.00 72 977.2
20200125205123 63 223 1.0 11.0 0.00 0.00 0.00 71 977.3
20200125204120 63 264 1.0 11.0 0.00 0.00 0.00 71 977.4
20200125203053 63 246 0.0 0.0 0.00 0.00 0.00 72 977.4
20200125202110 63 173 1.0 5.0 0.00 0.00 0.00 71 977.6
20200125201129 63 220 1.0 6.0 0.00 0.00 0.00 71 977.6
20200125200130 63 182 1.0 6.0 0.00 0.00 0.00 70 977.7
20200125195102 63 211 1.0 7.0 0.00 0.00 0.00 69 977.7
20200125194117 63 213 2.0 11.0 0.00 0.00 0.00 69 977.9
20200125193115 64 246 1.0 13.0 0.00 0.00 0.00 67 977.9
20200125192135 64 254 2.0 13.0 0.00 0.00 0.00 68 977.9
20200125191141 64 209 2.0 9.0 0.00 0.00 0.00 68 978.0
20200125190132 63 214 1.0 12.0 0.00 0.00 0.00 67 978.3
20200125185135 63 150 1.0 12.0 0.00 0.00 0.00 67 978.6
20200125184134 63 232 1.0 8.0 0.00 0.00 0.00 68 978.7
20200125183103 62 177 1.0 7.0 0.00 0.00 0.00 68 979.2
20200125182027 62 216 0.0 8.0 0.00 0.00 0.00 69 979.5
20200125181028 61 183 1.0 8.0 0.00 0.00 0.00 68 979.7
20200125180024 61 238 0.0 6.0 0.00 0.00 0.00 69 979.8
20200125175002 60 203 1.0 7.0 0.00 0.00 0.00 68 980.1
20200125173955 60 175 0.0 10.0 0.00 0.00 0.00 67 980.4
20200125172948 60 245 1.0 10.0 0.00 0.00 0.00 66 980.4
20200125171945 60 213 0.0 6.0 0.00 0.00 0.00 67 980.5
20200125170955 60 225 0.0 5.0 0.00 0.00 0.00 67 980.7
20200125165926 59 211 0.0 4.0 0.00 0.00 0.00 67 980.8
20200125164941 60 231 0.0 4.0 0.00 0.00 0.00 67 980.9
20200125163926 59 168 0.0 6.0 0.00 0.00 0.00 66 981.0
20200125162910 59 231 0.0 4.0 0.00 0.00 0.00 65 981.0
20200125161931 58 236 0.0 6.0 0.00 0.00 0.00 66 981.0
20200125160923 58 246 0.0 6.0 0.00 0.00 0.00 67 980.9
20200125155915 57 205 0.0 2.0 0.00 0.00 0.00 69 980.9
20200125154924 56 206 0.0 2.0 0.00 0.00 0.00 69 981.0
20200125153928 55 220 0.0 0.0 0.00 0.00 0.00 70 980.9
20200125152937 55 213 0.0 0.0 0.00 0.00 0.00 72 980.8
20200125152000 54 220 0.0 5.0 0.00 0.00 0.00 73 980.7
20200125150958 53 232 0.0 2.0 0.00 0.00 0.00 76 980.5
20200125145943 52 232 0.0 0.0 0.00 0.00 0.00 77 980.5
20200125144910 51 232 0.0 0.0 0.00 0.00 0.00 78 980.4
20200125143934 51 232 0.0 0.0 0.00 0.00 0.00 78 980.3
20200125142945 50 235 0.0 3.0 0.00 0.00 0.00 78 980.5
20200125141949 50 240 0.0 2.0 0.00 0.00 0.00 79 980.5
20200125141007 49 240 0.0 1.0 0.00 0.00 0.00 79 980.3
20200125135953 49 242 0.0 2.0 0.00 0.00 0.00 79 980.2
20200125135014 48 250 0.0 1.0 0.00 0.00 0.00 79 980.1
20200125133950 48 252 0.0 3.0 0.00 0.00 0.00 80 980.1
20200125132933 47 271 0.0 0.0 0.00 0.00 0.00 80 980.1
20200125131906 47 273 0.0 0.0 0.00 0.00 0.00 80 980.1
20200125130918 47 273 0.0 0.0 0.00 0.00 0.00 79 980.1
20200125125900 47 273 0.0 0.0 0.00 0.00 0.00 78 980.0
20200125124909 47 273 0.0 0.0 0.00 0.00 0.00 78 980.0
20200125123908 47 273 0.0 0.0 0.00 0.00 0.00 77 980.0
20200125122920 47 274 0.0 0.0 0.00 0.00 0.00 75 980.0
20200125121926 47 273 0.0 0.0 0.00 0.00 0.00 74 980.0
20200125120942 47 275 0.0 0.0 0.00 0.00 0.00 74 979.8
20200125115949 47 275 0.0 0.0 0.00 0.00 0.00 73 979.7
20200125115001 46 275 0.0 0.0 0.00 0.00 0.00 72 979.8
20200125114022 46 275 0.0 0.0 0.00 0.00 0.00 74 979.8
20200125113026 46 275 0.0 0.0 0.00 0.00 0.00 74 979.7
20200125111953 45 276 0.0 0.0 0.00 0.00 0.00 74 979.5
20200125110957 45 276 0.0 0.0 0.00 0.00 0.00 74 979.5
20200125105944 45 276 0.0 0.0 0.00 0.00 0.00 73 979.6
20200125104932 46 276 0.0 0.0 0.00 0.00 0.00 72 979.5
20200125103924 46 276 0.0 0.0 0.00 0.00 0.00 72 979.5
20200125102908 45 276 0.0 0.0 0.00 0.00 0.00 74 979.6
20200125101933 45 276 0.0 0.0 0.00 0.00 0.00 73 979.6
20200125100945 45 276 0.0 0.0 0.00 0.00 0.00 73 979.7
20200125095917 44 276 0.0 0.0 0.00 0.00 0.00 75 979.8
20200125094854 43 276 0.0 0.0 0.00 0.00 0.00 77 979.9
20200125093912 43 276 0.0 0.0 0.00 0.00 0.00 79 980.0
20200125092921 43 276 0.0 0.0 0.00 0.00 0.00 79 980.0
20200125091934 44 276 0.0 0.0 0.00 0.00 0.00 79 980.2
20200125090952 44 276 0.0 0.0 0.00 0.00 0.00 78 980.2
20200125090012 44 276 0.0 0.0 0.00 0.00 0.00 78 980.3
20200125084937 45 276 0.0 0.0 0.00 0.00 0.00 78 980.3
20200125083913 45 276 0.0 0.0 0.00 0.00 0.00 78 980.2
20200125082924 45 276 0.0 0.0 0.00 0.00 0.00 77 980.2
20200125081931 45 276 0.0 0.0 0.00 0.00 0.00 77 980.2
20200125080858 46 276 0.0 0.0 0.00 0.00 0.00 77 980.2
20200125075907 46 276 0.0 0.0 0.00 0.00 0.00 76 980.2
20200125074918 46 276 0.0 0.0 0.00 0.00 0.00 75 980.3
20200125073942 47 276 0.0 0.0 0.00 0.00 0.00 75 980.4
20200125072909 47 276 0.0 0.0 0.00 0.00 0.00 75 980.5
20200125071916 46 276 0.0 0.0 0.00 0.00 0.00 75 980.6
20200125070850 45 277 0.0 0.0 0.00 0.00 0.00 78 980.6
20200125065907 45 277 0.0 0.0 0.00 0.00 0.00 79 980.6
20200125064841 45 277 0.0 0.0 0.00 0.00 0.00 78 980.5
20200125063832 45 277 0.0 0.0 0.00 0.00 0.00 77 980.6
20200125062839 45 277 0.0 0.0 0.00 0.00 0.00 77 980.6
20200125061841 45 277 0.0 0.0 0.00 0.00 0.00 76 980.6
20200125060817 45 277 0.0 0.0 0.00 0.00 0.00 75 980.6
20200125055818 45 277 0.0 0.0 0.00 0.00 0.00 75 980.7
20200125054839 45 277 0.0 0.0 0.00 0.00 0.00 76 980.8